Montgomery, NY

8:29 AM EDT on September 28, 2016 (GMT -0400)
Orange County

Weather History for KMGJ - May, 2013

Change the Weather History Date:

Tuesday, May 28, 2013

  Actual Average (KPOU) Record (KPOU)
Temperature  
Mean Temperature 54 °F 62 °F  
Max Temperature 64 °F 75 °F 94 °F (2016)
Min Temperature 44 °F 50 °F 32 °F (1949)
Degree Days  
Heating Degree Days 11 4  
Month to date heating degree days 211  
Since 1 July heating degree days 6150  
Cooling Degree Days 0 2  
Month to date cooling degree days 26  
Year to date cooling degree days 31  
Growing Degree Days 4 (Base 50)    
Moisture  
Dew Point 52 °F    
Average Humidity 87    
Maximum Humidity 96    
Minimum Humidity 50    
Precipitation  
Precipitation 0.20 in 0.15 in 1.13 in (1984)
Month to date precipitation 3.94  
Year to date precipitation 17.03  
Sea Level Pressure  
Sea Level Pressure 30.17 in    
Wind  
Wind Speed 0 mph (NE)    
Max Wind Speed 5 mph    
Max Gust Speed -    
Visibility 5 miles    
Events Rain    
T = Trace of Precipitation, MM = Missing Value Source: NWS Daily Summary

Daily Weather History Graph

Daily Weather History Graph

Search for Another Location

Airport or City:

Trip Planner

Search our weather history database for the weather conditions in past years. The results will help you decide how hot, cold, wet, or windy it might be!

Date:

Astronomy

May. 28, 2013 Rise Set
Actual Time 5:27 AM EDT 8:21 PM EDT
Civil Twilight 4:54 AM EDT 8:54 PM EDT
Nautical Twilight 4:13 AM EDT 9:36 PM EDT
Astronomical Twilight 3:24 AM EDT 10:24 PM EDT
Moon 11:41 PM EDT 9:13 AM EDT
Length of Visible Light 15h 59m
Length of Day
14h 54m
Waning Gibbous, 83% of the Moon is Illuminated
May 28
Waning Gibbous
May 31
Last Quarter
Jun 8
New
Jun 16
First Quarter
Jun 23
Full

Hourly Weather History & Observations

Time (EDT) Temp. Dew Point Humidity Pressure Visibility Wind Dir Wind Speed Gust Speed Precip Events Conditions
12:54 AM 46.9 °F 43.0 °F 86% 30.19 in 10.0 mi Calm Calm - N/A   Clear
1:54 AM 45.0 °F 42.1 °F 90% 30.20 in 10.0 mi Calm Calm - N/A   Clear
2:54 AM 45.0 °F 42.1 °F 90% 30.20 in 10.0 mi Calm Calm - N/A   Clear
3:54 AM 45.0 °F 42.1 °F 90% 30.20 in 10.0 mi Calm Calm - N/A   Clear
4:54 AM 44.1 °F 41.0 °F 89% 30.19 in 10.0 mi Calm Calm - N/A   Clear
5:54 AM 45.0 °F 42.1 °F 90% 30.21 in 10.0 mi Calm Calm - N/A   Clear
6:54 AM 46.0 °F 43.0 °F 89% 30.21 in 10.0 mi Calm Calm - N/A   Clear
7:54 AM 53.1 °F 46.0 °F 77% 30.21 in 10.0 mi Calm Calm - N/A   Clear
8:54 AM 57.9 °F 46.9 °F 67% 30.21 in 10.0 mi Calm Calm - N/A   Clear
9:54 AM 61.0 °F 46.0 °F 58% 30.21 in 10.0 mi Calm Calm - N/A   Clear
10:54 AM 64.0 °F 45.0 °F 50% 30.21 in 10.0 mi Calm Calm - N/A   Clear
11:54 AM 64.0 °F 48.9 °F 58% 30.20 in 10.0 mi Calm Calm - N/A   Overcast
12:54 PM 62.1 °F 52.0 °F 70% 30.19 in 10.0 mi SW 3.5 mph - 0.00 in Rain Light Rain
1:54 PM 59.0 °F 54.0 °F 83% 30.20 in 5.0 mi Calm Calm - 0.05 in Rain Light Rain
2:42 PM 57.2 °F 53.6 °F 88% 30.19 in 5.0 mi NNE 3.5 mph - 0.05 in Rain Rain
2:54 PM 57.9 °F 55.0 °F 90% 30.19 in 6.0 mi Calm Calm - 0.06 in Rain Light Rain
3:54 PM 57.9 °F 54.0 °F 87% 30.19 in 6.0 mi Calm Calm - 0.04 in Rain Light Rain
4:27 PM 57.2 °F 55.4 °F 94% 30.18 in 4.0 mi Calm Calm - 0.03 in Rain Light Rain
4:54 PM 57.9 °F 55.0 °F 90% 30.18 in 5.0 mi ESE 3.5 mph - 0.03 in Rain Light Rain
5:16 PM 57.2 °F 55.4 °F 94% 30.17 in 7.0 mi ENE 4.6 mph - 0.00 in   Overcast
5:23 PM 57.2 °F 55.4 °F 94% 30.17 in - North - - 0.00 in   Unknown
5:54 PM 57.9 °F 55.9 °F 93% 30.16 in 2.5 mi ENE 3.5 mph - 0.00 in   Mist
6:20 PM 57.2 °F 55.4 °F 94% 30.16 in 2.5 mi Calm Calm - N/A   Overcast
6:34 PM 57.2 °F 55.4 °F 94% 30.15 in 1.5 mi NNE 3.5 mph - 0.01 in   Overcast
6:54 PM 57.9 °F 55.9 °F 93% 30.16 in 1.2 mi Calm Calm - 0.01 in   Overcast
6:57 PM 57.2 °F 55.4 °F 94% 30.15 in 1.0 mi Calm Calm - N/A   Overcast
7:15 PM 57.2 °F 55.4 °F 94% 30.15 in 1.2 mi Calm Calm - N/A   Overcast
7:36 PM 57.2 °F 55.4 °F 94% 30.14 in 1.5 mi Calm Calm - 0.01 in   Overcast
7:43 PM 57.2 °F 55.4 °F 94% 30.14 in 2.0 mi Calm Calm - 0.01 in   Overcast
7:54 PM 57.9 °F 55.9 °F 93% 30.14 in 1.8 mi Calm Calm - 0.01 in   Overcast
8:09 PM 57.2 °F 55.4 °F 94% 30.14 in 1.5 mi Calm Calm - N/A   Overcast
8:21 PM 57.2 °F 55.4 °F 94% 30.14 in 2.0 mi Calm Calm - N/A   Overcast
8:54 PM 57.9 °F 55.9 °F 93% 30.14 in 2.0 mi Calm Calm - N/A   Overcast
9:07 PM 57.2 °F 55.4 °F 94% 30.13 in 1.8 mi Calm Calm - N/A   Overcast
9:16 PM 57.2 °F 55.4 °F 94% 30.13 in 2.0 mi Calm Calm - N/A   Overcast
9:32 PM 57.2 °F 55.4 °F 94% 30.14 in 3.0 mi Calm Calm - 0.00 in Rain Light Rain
9:54 PM 57.0 °F 55.9 °F 96% 30.14 in 3.0 mi Calm Calm - 0.00 in   Overcast
10:54 PM 57.9 °F 55.0 °F 90% 30.13 in 5.0 mi Calm Calm - N/A   Overcast
11:54 PM 57.0 °F 55.0 °F 93% 30.13 in 3.0 mi NNE 3.5 mph - N/A   Overcast